When you browse on this site, cookies collect data to enhance your experience and personalize the content and advertising you see.
Visit our Privacy Policy to learn more. By continuing to use the site, you agree to this use of cookies and data.
  • In Czech Republic
  • List of Countries
  • For 7 days
  • Water Temperature
  • Satellite Maps
  • Weather Map
  • Weather Widgets
  • user-avatar
    Login

    Hourly Weather Moroskino

    Today, 16 February, Saturday

    Time Temperature Precipitation Wind Pressure Humidity
    00:00 -1°C° 0.1 mm 5 mps 737 mmHg 92%
    01:00 -1°C° 0.1 mm 4 mps 737 mmHg 92%
    02:00 -1°C° 0.1 mm 4 mps 737 mmHg 92%
    03:00 -1°C° 0 mm 3 mps 737 mmHg 93%
    04:00 -1°C° 0.1 mm 3 mps 737 mmHg 93%
    05:00 -2°C° 0.1 mm 4 mps 737 mmHg 93%
    06:00 -2°C° 0.1 mm 4 mps 737 mmHg 92%
    07:00 -2°C° 0.1 mm 4 mps 737 mmHg 93%
    08:00 -2°C° 0.1 mm 4 mps 737 mmHg 93%
    09:00 -2°C° 0 mm 4 mps 737 mmHg 93%
    10:00 -1°C° 0.3 mm 5 mps 737 mmHg 94%
    11:00 -1°C° 0.3 mm 5 mps 738 mmHg 94%
    12:00 -1°C° 0.3 mm 5 mps 738 mmHg 95%
    13:00 -1°C° 0 mm 5 mps 738 mmHg 92%
    14:00 -2°C° 0 mm 5 mps 739 mmHg 89%
    15:00 -2°C° 0 mm 5 mps 739 mmHg 86%
    16:00 -3°C° 0 mm 4 mps 740 mmHg 87%
    17:00 -4°C° 0 mm 4 mps 740 mmHg 88%
    18:00 -5°C° 0 mm 3 mps 741 mmHg 88%
    19:00 -6°C° 0 mm 3 mps 741 mmHg 90%
    20:00 -8°C° 0 mm 3 mps 741 mmHg 91%
    21:00 -8°C° 0 mm 2 mps 741 mmHg 93%
    22:00 -9°C° 0 mm 2 mps 741 mmHg 93%
    23:00 -9°C° 0 mm 2 mps 741 mmHg 93%

    Tomorrow, 17 February, Sunday

    Time Temperature Precipitation Wind Pressure Humidity
    00:00 -10°C° 0 mm 2 mps 741 mmHg 94%
    01:00 -10°C° 0 mm 2 mps 740 mmHg 94%
    02:00 -9°C° 0 mm 2 mps 740 mmHg 94%
    03:00 -9°C° 0 mm 2 mps 739 mmHg 95%
    04:00 -9°C° 0 mm 3 mps 738 mmHg 94%
    05:00 -9°C° 0 mm 3 mps 737 mmHg 94%
    06:00 -10°C° 0 mm 4 mps 736 mmHg 94%
    07:00 -9°C° 0 mm 4 mps 735 mmHg 93%
    08:00 -8°C° 0 mm 4 mps 734 mmHg 93%
    09:00 -6°C° 0 mm 5 mps 733 mmHg 92%
    10:00 -5°C° 0.1 mm 5 mps 732 mmHg 92%
    11:00 -4°C° 0.1 mm 5 mps 731 mmHg 91%
    12:00 -2°C° 0.1 mm 5 mps 730 mmHg 91%
    13:00 -2°C° 0.1 mm 5 mps 729 mmHg 91%
    14:00 -2°C° 0.1 mm 5 mps 729 mmHg 91%
    15:00 -2°C° 0.1 mm 5 mps 728 mmHg 90%
    16:00 -2°C° 0.3 mm 5 mps 727 mmHg 89%
    17:00 -2°C° 0.3 mm 5 mps 727 mmHg 88%
    18:00 -2°C° 0.3 mm 5 mps 727 mmHg 86%
    19:00 -4°C° 0.1 mm 5 mps 727 mmHg 87%
    20:00 -5°C° 0.1 mm 5 mps 727 mmHg 88%
    21:00 -4°C° 0.1 mm 4 mps 727 mmHg 88%
    22:00 -5°C° 0.1 mm 4 mps 727 mmHg 90%
    23:00 -5°C° 0.1 mm 4 mps 727 mmHg 91%

    Day after tomorrow, 18 February, Monday

    Time Temperature Precipitation Wind Pressure Humidity
    00:00 -5°C° 0.1 mm 4 mps 727 mmHg 93%
    01:00 -5°C° 0.2 mm 3 mps 727 mmHg 93%
    02:00 -4°C° 0.2 mm 3 mps 727 mmHg 94%
    03:00 -4°C° 0.2 mm 3 mps 727 mmHg 95%
    04:00 -4°C° 0.1 mm 4 mps 728 mmHg 93%
    05:00 -4°C° 0.1 mm 4 mps 728 mmHg 92%
    06:00 -5°C° 0.1 mm 5 mps 729 mmHg 90%
    07:00 -5°C° 0.2 mm 6 mps 730 mmHg 88%
    08:00 -7°C° 0.2 mm 7 mps 731 mmHg 85%
    09:00 -7°C° 0.2 mm 8 mps 732 mmHg 83%
    10:00 -7°C° 0.1 mm 8 mps 733 mmHg 82%
    11:00 -7°C° 0.1 mm 8 mps 734 mmHg 82%
    12:00 -8°C° 0.1 mm 8 mps 736 mmHg 81%
    13:00 -8°C° 0.1 mm 8 mps 737 mmHg 80%
    14:00 -8°C° 0.1 mm 8 mps 738 mmHg 80%
    15:00 -10°C° 0.1 mm 8 mps 739 mmHg 79%
    16:00 -11°C° 0 mm 8 mps 740 mmHg 79%
    17:00 -11°C° 0 mm 7 mps 741 mmHg 79%
    18:00 -12°C° 0 mm 7 mps 742 mmHg 80%
    19:00 -13°C° 0 mm 7 mps 743 mmHg 80%
    20:00 -14°C° 0 mm 6 mps 744 mmHg 80%
    21:00 -15°C° 0 mm 6 mps 745 mmHg 80%
    22:00 -14°C° 0 mm 5 mps 746 mmHg 81%
    23:00 -15°C° 0 mm 5 mps 747 mmHg 83%

    19 February, Tuesday

    Time Temperature Precipitation Wind Pressure Humidity
    00:00 -16°C° 0 mm 4 mps 748 mmHg 84%
    01:00 -16°C° 0 mm 4 mps 748 mmHg 86%
    02:00 -16°C° 0 mm 3 mps 749 mmHg 89%
    03:00 -17°C° 0 mm 3 mps 750 mmHg 91%
    04:00 -17°C° 0 mm 3 mps 750 mmHg 92%
    05:00 -17°C° 0 mm 2 mps 750 mmHg 93%
    06:00 -18°C° 0 mm 2 mps 750 mmHg 94%
    07:00 -17°C° 0 mm 2 mps 751 mmHg 93%
    08:00 -16°C° 0 mm 2 mps 751 mmHg 91%
    09:00 -15°C° 0 mm 2 mps 751 mmHg 90%
    10:00 -14°C° 0 mm 3 mps 750 mmHg 86%
    11:00 -14°C° 0 mm 4 mps 750 mmHg 82%
    12:00 -12°C° 0 mm 5 mps 749 mmHg 79%
    13:00 -11°C° 0 mm 5 mps 748 mmHg 77%
    14:00 -10°C° 0 mm 6 mps 748 mmHg 76%
    15:00 -9°C° 0 mm 6 mps 747 mmHg 75%
    16:00 -10°C° 0 mm 6 mps 747 mmHg 77%
    17:00 -10°C° 0 mm 5 mps 746 mmHg 80%
    18:00 -10°C° 0 mm 5 mps 746 mmHg 82%
    19:00 -10°C° 0 mm 5 mps 746 mmHg 84%
    20:00 -11°C° 0 mm 5 mps 746 mmHg 86%
    21:00 -10°C° 0 mm 4 mps 746 mmHg 88%
    22:00 -10°C° 0 mm 4 mps 745 mmHg 89%
    23:00 -11°C° 0 mm 4 mps 745 mmHg 90%

    20 February, Wednesday

    Time Temperature Precipitation Wind Pressure Humidity
    00:00 -11°C° 0 mm 4 mps 745 mmHg 91%
    01:00 -11°C° 0 mm 4 mps 745 mmHg 90%
    02:00 -11°C° 0 mm 4 mps 744 mmHg 90%
    03:00 -11°C° 0 mm 4 mps 744 mmHg 90%
    04:00 -10°C° 0 mm 4 mps 744 mmHg 89%
    05:00 -11°C° 0 mm 5 mps 743 mmHg 88%
    06:00 -11°C° 0 mm 5 mps 743 mmHg 87%
    07:00 -10°C° 0 mm 5 mps 742 mmHg 85%
    08:00 -9°C° 0 mm 6 mps 742 mmHg 83%
    09:00 -8°C° 0 mm 6 mps 742 mmHg 80%
    10:00 -8°C° 0 mm 6 mps 742 mmHg 80%
    11:00 -8°C° 0 mm 7 mps 741 mmHg 80%
    12:00 -7°C° 0 mm 7 mps 741 mmHg 80%
    13:00 -7°C° 0 mm 7 mps 741 mmHg 82%
    14:00 -7°C° 0 mm 7 mps 740 mmHg 83%
    15:00 -7°C° 0 mm 7 mps 740 mmHg 85%
    16:00 -6°C° 0.1 mm 6 mps 740 mmHg 87%
    17:00 -6°C° 0.1 mm 6 mps 740 mmHg 88%
    18:00 -6°C° 0.1 mm 6 mps 740 mmHg 89%
    19:00 -6°C° 0.1 mm 5 mps 739 mmHg 90%
    20:00 -6°C° 0.1 mm 5 mps 739 mmHg 90%
    21:00 -5°C° 0.1 mm 5 mps 739 mmHg 90%
    22:00 -5°C° 0.1 mm 5 mps 738 mmHg 91%
    23:00 -5°C° 0.1 mm 5 mps 738 mmHg 91%

    21 February, Thursday

    Time Temperature Precipitation Wind Pressure Humidity
    00:00 -5°C° 0.1 mm 5 mps 738 mmHg 92%
    01:00 -5°C° 0.1 mm 5 mps 737 mmHg 92%
    02:00 -4°C° 0.1 mm 4 mps 737 mmHg 92%
    03:00 -4°C° 0.1 mm 4 mps 737 mmHg 92%
    04:00 -4°C° 0.2 mm 4 mps 736 mmHg 93%
    05:00 -4°C° 0.2 mm 4 mps 736 mmHg 93%
    06:00 -4°C° 0.2 mm 4 mps 735 mmHg 93%
    07:00 -4°C° 0.5 mm 4 mps 735 mmHg 93%
    08:00 -4°C° 0.5 mm 5 mps 735 mmHg 93%
    09:00 -4°C° 0.5 mm 5 mps 734 mmHg 93%
    10:00 -4°C° 0.2 mm 5 mps 734 mmHg 93%
    11:00 -2°C° 0.2 mm 5 mps 734 mmHg 93%
    12:00 -2°C° 0.2 mm 4 mps 734 mmHg 94%
    13:00 -2°C° 0.2 mm 4 mps 733 mmHg 95%
    14:00 -2°C° 0.2 mm 4 mps 733 mmHg 96%
    15:00 -2°C° 0.2 mm 4 mps 733 mmHg 96%
    16:00 -1°C° 0.1 mm 3 mps 733 mmHg 96%
    17:00 -2°C° 0.1 mm 3 mps 733 mmHg 95%
    18:00 -2°C° 0.1 mm 2 mps 733 mmHg 95%
    19:00 -2°C° 0.2 mm 2 mps 733 mmHg 95%
    20:00 -2°C° 0.2 mm 2 mps 733 mmHg 96%
    21:00 -2°C° 0.2 mm 2 mps 733 mmHg 96%
    22:00 -3°C° 0.4 mm 2 mps 733 mmHg 96%
    23:00 -4°C° 0.4 mm 3 mps 733 mmHg 96%
    Show more